www.pogodaiklimat.ru

Погода и климат >> Архив погоды >> Китай >> Lu Shan


ПОГОДА в Lu Shan

  • Прогноз погоды в Lu Shan
  • Монитор погоды в Lu Shan
  • Климат города

АРХИВ ПОГОДЫ в Lu Shan

Время (UTC), дата Ветер
(напр.,м/с)
 
Видим.   Явления Облачность Т
(С)
Тd
(С)
f
(%)
Тe
(С)
Тes
(С)
Комфортность P
(гПа)
Po
(гПа)
Тmin
(С)
Tmax
(С)
R
(мм)
S
(см)
09 16.03 С 3 12 км 9/9 100 м
[]
+3.7 +1.6 86 -0 0 1022.4 1022.0
12 16.03 В 7 16 км 8/8 300 м
[]
+2.4 +0.5 87 -4 -4 1023.5 886.6
18 16.03 В 5 22 км ?/? +2.3 -0.8 80 -3 -3 1022.5 886.8 +5.9
21 16.03 В 4 27 км ?/? +2.9 -2.6 67 -2 -2 1021.3 1021.0
00 17.03 В 1 29 км 10/10 1500 м
[]
+4.1 -1.9 65 +3 +3 1022.4 1044.7
03 17.03 С 2 600 м слабый дождь {туман} ?/? +3.0 +2.3 95 -0 -0 1022.6 1023.0
06 17.03 СВ 1 <100 м слабый дождь {туман} ?/? +3.1 +3.0 99 +1 +1 1021.3 1021.0 +1.9 3
09 17.03 С 1 800 м слабый дождь {туман} ?/? +5.0 +5.0 100 +3 +3 1020.5 1021.0
12 17.03 Ю 3 2500 м в посл. час туман {дождь} ?/? +5.6 +5.6 100 +2 +2 1020.2 1020.0 7
18 17.03 С 1 300 м туман ?/? +5.0 +5.0 100 +3 +3 1022.1 886.6 +6.6 8
21 17.03 ЮВ 2 <100 м туман ?/? +3.9 +3.9 100 +1 +1 1021.8 1022.0
00 18.03 штиль 0 100 м слабый дождь ?/? +3.5 +3.5 100 +2 +2 1024.0 1045.9 2
03 18.03 С 1 13 км слабый дождь {туман} 10/10 1500 м
[]
+6.1 +6.1 100 +5 +5 1023.6 1024.0
06 18.03 В 1 <100 м слабый дождь {туман} ?/? +4.9 +4.9 100 +3 +3 1022.3 1022.0 +2.6 2
09 18.03 В 4 300 м слабый дождь {туман} ?/? +4.4 +4.4 100 -0 -0 1023.0 1023.0
12 18.03 В 4 300 м туман {дождь} ?/? +4.3 +4.3 100 -0 -0 1023.3 1023.0 1
18 18.03 В 1 500 м дымка {туман} ?/? +6.5 +6.5 100 +5 +5 1022.6 1023.0 +7.3 0.2
21 18.03 З 1 500 м туман ?/? +6.5 +6.5 100 +5 +5 1021.3 1021.0
00 19.03 Ю 3 <100 м слабый дождь ?/? +5.7 +5.7 100 +2 +2 1022.5 1023.0 0.2
03 19.03 С 2 18 км слабый ливневой дождь {туман} 10/10 100 м
[]
+11.2 +11.2 100 +10 +10 1021.2 1021.0
06 19.03 ЮВ 3 200 м туман {ливн. осадки, дождь} ?/? +10.8 +10.5 98 +9 +9 1018.7 1041.4 +4.1 11
09 19.03 Ю 6 400 м слабый ливневой дождь {туман} ?/? +9.5 +9.5 100 +6 +6 1018.1 1018.0
12 19.03 С 1 100 м слабый ливневой дождь {туман} ?/? +7.2 +7.2 100 +6 +6 1018.7 884.7 3
18 19.03 ЮЗ 2 400 м {туман} ?/? +8.7 +8.6 99 +7 +7 1016.9 884.6 +13.2 28
21 19.03 Ю 2 <100 м туман ?/? +5.6 +5.6 100 +3 +3 1017.7 1018.0
00 20.03 С 2 100 м слабый ливневой дождь ?/? +5.4 +5.4 100 +3 +3 1019.7 1041.4 7
03 20.03 З 1 <100 м слабый дождь {ливн. осадки, туман} ?/? +4.8 +4.8 100 +3 +3 1020.0 1020.0
06 20.03 З 1 <100 м туман {ливн. осадки, дождь} ?/? +5.9 +5.9 100 +5 +5 1019.3 1019.0 +4.4 0.9
09 20.03 С 3 <100 м туман ?/? +4.9 +4.9 100 +1 +1 1020.4 1020.0
12 20.03 З 1 <100 м туман ?/? +3.3 +3.3 100 +2 +2 1022.5 1023.0
18 20.03 С 3 100 м туман ?/? +3.1 +3.1 100 -1 -1 1024.0 1024.0 +10.1 0.1
21 20.03 С 4 <100 м туман ?/? +1.9 +1.9 100 -3 -3 1023.8 1024.0
00 21.03 СВ 5 100 м туман ?/? +1.6 +1.6 100 -4 -4 1025.6 1025.5 0.1
03 21.03 В 4 200 м туман ?/? +2.3 +2.3 100 -3 -3 1026.1 1026.0
06 21.03 ЮЗ 1 400 м дымка {туман} ?/? +5.5 +4.5 93 +4 +4 1022.8 1023.0 +1.1
09 21.03 В 2 200 м дымка {туман} ?/? +4.6 +3.7 94 +2 +2 1021.4 1021.0
12 21.03 В 4 13 км слабый дождь {туман} 10/10 100 м
[]
+4.0 +3.9 99 -1 -1 1021.8 1022.0 0.1
18 21.03 Ю 2 4400 м в посл. час туман ?/? +4.2 +4.2 100 +1 +1 1018.0 1018.0 +7.7 7
21 21.03 ЮВ 4 500 м туман ?/? +4.0 +4.0 100 -1 -1 1016.4 1016.0
00 22.03 Ю 1 400 м слабый дождь ?/? +5.1 +5.1 100 +4 +4 1017.3 1016.3 1
03 22.03 Ю 2 200 м слабый дождь {туман} ?/? +6.5 +6.5 100 +4 +4 1017.1 1017.0
06 22.03 З 1 2900 м слабый дождь {туман} ?/? +6.9 +6.9 100 +6 +6 1015.6 1016.0 +3.2 1
09 22.03 З 1 200 м туман {дождь} ?/? +5.3 +5.3 100 +4 +4 1016.2 1016.0
12 22.03 С 2 <100 м туман {дождь} ?/? +4.1 +4.1 100 +1 +1 1018.1 1018.0 0.5
15 22.03 С 2 <100 м туман {дождь} ?/? +4.1 +4.1 100 +1 +1 1018.1 1018.0 0.5
18 22.03 З 1 21 км {туман} ?/? +3.9 +3.9 100 +2 +2 1019.7 1018.8 +7.1
21 22.03 С 1 500 м туман ?/? +3.4 +3.4 100 +2 +2 1020.1 1020.0
00 23.03 С 1 1200 м в посл. час туман ?/? +3.8 +3.8 100 +2 +2 1021.3 1021.0
03 23.03 Ю 1 <100 м туман ?/? +5.3 +5.3 100 +4 +4 1022.1 1022.0
06 23.03 Ю 2 20 км в посл. час туман 9/9 100 м
[]
+8.9 +7.5 91 +7 +8 1018.1 1018.0 +3.2

 

Местоположение метеостанции Lu Shan (Китай): широта 29.58 долгота 115.98 высота над уровнем моря 1165 м.

В архиве по умолчанию представлена погода в Lu Shan за последнюю неделю. Архивные данные за месяц целиком и за предыдущие месяцы, начиная с января 2011 года, Вы можете получить, выбрав интересующий диапазон дат из раскрывающегося списка и нажав кнопку "Ввод!".

Внимание! Время в таблицах - всемирное. Для получения местного времени необходимо прибавить поправку, которая в Lu Shan равна 8 ч.

Смотрите также архив погоды в соседних городах и на ближайших метеорологических станциях:

Погода в Nanchang (Китай) (109 км)
Погода в Jingdezhen (Китай) (122 км)
Погода в Anqing (Китай) (148 км)
Погода в Xiushui (Китай) (149 км)
Погода в Macheng (Китай) (203 км)
Погода в Huoshan (Китай) (205 км)
Погода в Wuhan (Китай) (212 км)
Погода в Huang Shan (Китай) (218 км)
Погода в Nancheng (Китай) (232 км)
Погода в Yichun (Китай) (252 км)

Пояснения к столбцам:

Ветер - указаны скорость ветра в м/с - средняя за 10 мин, порывы в срок и между сроками (в фигурных скобках) и направление, откуда дует ветер: С - северный, СВ - северо-восточный, В - восточный, ЮВ - юго-восточный, Ю - южный, ЮЗ - юго-западный, З - западный, СЗ - северо-западный.
Видимость - горизонтальная дальность видимости в метрах или километрах. При видимости от 1 до 10 км при отсутствии осадков обычно наблюдается дымка, при ухудшении видимости до 1 км и менее - туман. В сухую погоду видимость может ухудшаться дымом, пылью или мглою.
Явления - указаны атмосферные явления, наблюдавшиеся в срок или в последний час перед сроком; фигурными скобками обозначены явления, наблюдавшиеся между сроками (за 1-3 часа до срока); квадратными скобками обозначены град или гололедные отложения с указанием их диаметра в мм.
Облачность - указаны через наклонную черту общая и нижняя облачность в баллах и высота нижней границы облаков в метрах; квадратными скобками обозначены формы облаков: Ci - перистые, Cs - перисто-слоистые, Cc - перисто-кучевые, Ac - высококучевые, As - высокослоистые, Sc - слоисто-кучевые, Ns - слоисто-дождевые, Cu - кучевые, Cb - кучево-дождевые. Подробнее классификацию облаков см. в Атласе облаков (PDF).
T - Температура воздуха - температура, измеренная на высоте 2 м над землей.
Td - Температура точки росы - температура, при понижении до которой содержащийся в воздухе водяной пар достигнет насыщения.
f - Относительная влажность воздуха - влажноcть воздуха, измеренная на высоте 2 м над землей.
Te - Эффективная температура - температура, которую ощущает одетый по сезону человек в тени. Характеристика душности погоды. При расчете учитывается влияние влажности воздуха и скорости ветра на теплоощущения человека.
Tes - Эффективная температура на солнце - температура, которую ощущает человек, с поправкой на солнечный нагрев. Характеристика знойности погоды. Зависит от высоты солнца над горизонтом, облачности и скорости ветра. Ночью, в пасмурную погоду, а также при ветре 12 м/с и более поправка равна нулю.
P - Атмосферное давление - приведенное к уровню моря атмосферное давление.
Po - Атмосферное давление - измеренное на уровне метеостанции атмосферное давление.
Tmin - Минимальная температура - минимум температуры воздуха на высоте 2 м над землей.
Tmax - Максимальная температура - максимум температуры воздуха на высоте 2 м над землей.
R - Количество осадков - Количество выпавших осадков, мм. При наведении курсора мыши на число - период времени, за который выпало указанное количество осадков.
S - Снежный покров - Высота снежного покрова, см. При наведении курсора мыши на число - состояние снежного покрова и степень покрытия местности в баллах.